ZHANGHENG 1-01 (CSES-1)

Last updated on Sun Apr 12 2026 00:03:41 GMT+0000 (Coordinated Universal Time)

1 43194U 18015C 26101.55320096 .00006969 00000+0 31530-3 0 9990 2 43194 97.6809 265.9080 0018952 125.3557 234.9452 15.21081638454518
UTC large
Height (km)
Speed (km/s)
/
Latitude / Longitude
Inclination (degrees)
Orbital Period (minutes)
Azimuth
Elevation
Range (km)
Doppler Factor

Next 0 passes for location: London (51.5072 / 0.1276)

Sorry there are no passes over London.
ZHANGHENG 1-01 (CSES-1)